GW2969 Weather Reports


time (UTC)temp
F
wind
direction
speed
knots
gust
knots
rain 1hr
in
rain 24hr
in
rain mn
in
humidity
%
barometer
mb
20260505114537 50 147 0.0 0.9 0.00 0.21 0.08 97 1014.2
20260505114025 50 0 0.0 0.9 0.00 0.21 0.08 97 1014.2
20260505113521 50 0 0.0 0.0 0.00 0.21 0.08 97 1014.2
20260505113049 50 0 0.0 0.9 0.00 0.21 0.08 97 1014.1
20260505112522 50 0 0.0 0.9 0.00 0.21 0.08 97 1014.2
20260505112026 50 0 0.0 0.9 0.00 0.21 0.08 97 1014.2
20260505111541 50 124 0.0 0.0 0.00 0.21 0.08 97 1014.1
20260505111026 50 0 0.0 0.0 0.00 0.21 0.08 97 1014.1
20260505110527 50 0 0.0 0.0 0.00 0.21 0.08 97 1014.2
20260505102025 50 0 0.0 0.9 0.00 0.21 0.08 97 1014.3
20260505101539 50 0 0.0 0.9 0.00 0.21 0.08 97 1014.3
20260505101026 50 0 0.0 0.9 0.00 0.21 0.08 97 1014.2
20260505100526 50 0 0.0 0.9 0.01 0.21 0.08 97 1014.3
20260505100040 50 105 0.0 0.9 0.01 0.21 0.08 97 1014.3
20260505095526 50 0 0.0 0.9 0.01 0.21 0.08 97 1014.3
20260505095025 50 0 0.0 0.9 0.01 0.21 0.08 97 1014.4
20260505094540 50 0 0.0 0.9 0.01 0.21 0.08 97 1014.4
20260505094025 50 161 0.0 0.0 0.01 0.21 0.08 97 1014.3
20260505093525 50 0 0.0 0.9 0.01 0.21 0.08 97 1014.4
20260505093037 50 0 0.0 0.9 0.01 0.21 0.08 97 1014.5
20260505092529 50 0 0.0 0.9 0.01 0.21 0.08 97 1014.4
20260505092024 50 0 0.0 0.9 0.01 0.21 0.08 97 1014.5
20260505091541 50 99 0.0 0.0 0.01 0.21 0.08 97 1014.5
20260505091028 50 0 0.0 0.9 0.01 0.21 0.08 97 1014.8
20260505090526 50 0 0.0 0.9 0.01 0.20 0.07 97 1014.9
20260505090040 50 0 0.0 0.0 0.02 0.20 0.07 97 1015.0
20260505085527 50 0 0.0 0.0 0.02 0.20 0.07 97 1014.9
20260505085026 50 0 0.0 0.0 0.02 0.20 0.07 97 1015.0
20260505084541 50 0 0.0 0.0 0.03 0.20 0.07 97 1015.0
20260505084025 50 0 0.0 0.0 0.04 0.20 0.07 97 1014.8
20260505083525 50 0 0.0 0.0 0.05 0.20 0.07 97 1014.9
20260505083038 50 0 0.0 0.0 0.06 0.20 0.07 97 1015.1
20260505082525 50 0 0.0 0.0 0.07 0.20 0.07 97 1015.1
20260505082026 50 0 0.0 0.0 0.07 0.20 0.07 97 1015.1
20260505081544 50 0 0.0 0.0 0.07 0.20 0.07 97 1015.0
20260505081025 50 0 0.0 0.0 0.07 0.20 0.07 97 1015.0
20260505080525 50 0 0.0 0.0 0.06 0.19 0.06 97 1015.1
20260505080048 50 0 0.0 0.9 0.05 0.18 0.05 96 1014.9
20260505075526 50 0 0.0 0.9 0.05 0.18 0.05 96 1014.9
20260505075027 50 0 0.0 0.0 0.05 0.18 0.05 96 1015.0
20260505074541 50 0 0.0 0.0 0.04 0.17 0.04 96 1014.8
20260505074027 51 0 0.0 1.7 0.03 0.16 0.03 96 1014.9
20260505073527 51 0 0.0 1.7 0.02 0.15 0.02 96 1015.0
20260505073048 50 0 0.0 1.7 0.01 0.14 0.01 96 1015.2
20260505072526 50 162 0.0 0.9 0.00 0.13 0.00 96 1015.1
20260505072025 50 0 0.0 0.9 0.00 0.13 0.00 96 1015.4
20260505071549 50 0 0.0 0.9 0.01 0.13 0.00 96 1015.4
20260505071025 50 0 0.0 0.9 0.01 0.13 0.00 96 1015.4
20260505070526 50 0 0.0 0.9 0.01 0.13 0.00 96 1015.3
20260505070038 50 161 0.0 1.7 0.02 0.13 0.00 96 1015.2
20260505065529 50 0 0.0 1.7 0.02 0.13 0.13 96 1015.2
20260505065026 50 0 0.0 0.0 0.02 0.13 0.13 96 1015.2
20260505064542 50 0 0.0 0.0 0.02 0.13 0.13 96 1015.2
20260505064026 50 0 0.0 0.9 0.03 0.13 0.13 96 1015.0
20260505063526 50 0 0.0 0.9 0.03 0.13 0.13 96 1014.9
20260505063039 50 0 0.0 0.0 0.03 0.13 0.13 95 1014.7
20260505062525 50 0 0.0 0.0 0.03 0.13 0.13 95 1014.8
20260505062026 51 0 0.0 0.0 0.04 0.13 0.13 95 1015.1
20260505061539 51 0 0.0 0.0 0.03 0.12 0.12 95 1015.1
20260505061025 51 0 0.0 0.0 0.03 0.12 0.12 95 1015.2
20260505060528 50 0 0.0 0.0 0.03 0.12 0.12 95 1015.2
20260505060040 51 0 0.0 0.0 0.03 0.11 0.11 95 1015.2
20260505055525 50 0 0.0 0.0 0.03 0.11 0.11 95 1015.1
20260505055026 50 0 0.0 0.0 0.04 0.11 0.11 95 1015.2
20260505054551 50 0 0.0 0.0 0.04 0.11 0.11 95 1015.3
20260505054025 51 0 0.0 0.0 0.04 0.10 0.10 94 1015.2
20260505053525 51 0 0.0 0.0 0.05 0.10 0.10 94 1015.2
20260505053054 51 0 0.0 0.0 0.06 0.10 0.10 94 1015.2
20260505052525 51 0 0.0 0.0 0.06 0.10 0.10 94 1015.2
20260505052026 51 0 0.0 0.9 0.06 0.09 0.09 94 1015.2
20260505051543 51 0 0.0 0.9 0.07 0.09 0.09 94 1015.2
20260505051025 51 0 0.0 0.0 0.07 0.09 0.09 93 1015.2
20260505050526 51 0 0.0 0.0 0.07 0.09 0.09 93 1015.3
20260505041537 52 143 0.0 0.9 0.02 0.02 0.02 92 1015.9
20260505041025 52 0 0.0 0.0 0.02 0.02 0.02 92 1015.7
20260505040525 52 0 0.0 0.0 0.02 0.02 0.02 92 1015.7
20260505040044 52 0 0.0 0.0 0.02 0.02 0.02 91 1015.5
20260505035526 52 0 0.0 0.0 0.02 0.02 0.02 91 1015.4
20260505035024 52 0 0.0 0.0 0.02 0.02 0.02 91 1015.1
20260505034538 52 0 0.0 0.9 0.02 0.02 0.02 90 1014.9
20260505034027 52 0 0.0 1.7 0.01 0.01 0.01 89 1014.7
20260505033526 53 167 0.0 1.7 0.01 0.01 0.01 89 1014.6
20260505033044 53 169 0.0 0.9 0.01 0.01 0.01 88 1014.6
20260505032526 53 0 0.0 0.9 0.00 0.00 0.00 88 1014.4
20260505032028 53 0 0.0 0.0 0.00 0.00 0.00 87 1014.4
20260505031539 53 0 0.0 0.0 0.00 0.00 0.00 86 1014.4
20260505031026 54 0 0.0 0.0 0.00 0.00 0.00 85 1014.4
20260505030525 54 0 0.0 0.0 0.00 0.00 0.00 84 1014.4
20260505030038 54 0 0.0 0.0 0.00 0.00 0.00 83 1014.5
20260505025526 54 168 0.0 0.9 0.00 0.00 0.00 83 1014.4
20260505025024 54 0 0.0 0.9 0.00 0.00 0.00 82 1014.5
20260505024544 54 168 0.0 0.9 0.00 0.00 0.00 84 1014.6
20260505024026 54 0 0.0 0.0 0.00 0.00 0.00 85 1014.6
20260505023525 54 0 0.0 0.0 0.00 0.00 0.00 85 1014.6
20260505023045 55 0 0.0 0.0 0.00 0.00 0.00 84 1014.5
20260505022526 55 0 0.0 0.0 0.00 0.00 0.00 83 1014.5
20260505022026 55 0 0.0 0.0 0.00 0.00 0.00 83 1014.3
20260505021538 55 0 0.0 0.0 0.00 0.00 0.00 82 1014.3
20260505021025 55 0 0.0 0.0 0.00 0.00 0.00 82 1014.4
20260505020525 55 0 0.0 0.0 0.00 0.00 0.00 80 1014.4
20260505020038 55 0 0.0 0.0 0.00 0.00 0.00 81 1014.4
20260505015525 55 0 0.0 0.0 0.00 0.00 0.00 80 1014.4
20260505015026 55 0 0.0 1.7 0.00 0.00 0.00 80 1014.5
20260505014538 56 0 0.0 1.7 0.00 0.00 0.00 80 1014.5
20260505014025 56 169 0.0 0.9 0.00 0.00 0.00 80 1014.6
20260505013525 56 0 0.0 0.9 0.00 0.00 0.00 81 1014.7
20260505013044 56 0 0.0 0.0 0.00 0.00 0.00 83 1014.8
20260505012526 56 0 0.0 0.0 0.00 0.00 0.00 82 1014.7
20260505012023 56 0 0.0 0.0 0.00 0.00 0.00 82 1014.8
20260505011549 56 0 0.0 0.9 0.00 0.00 0.00 83 1014.8
20260505011021 56 0 0.0 1.7 0.00 0.00 0.00 83 1014.8
20260505010526 56 0 0.0 2.6 0.00 0.00 0.00 84 1014.8
20260505010042 56 0 0.0 2.6 0.00 0.00 0.00 85 1014.9
20260505005530 56 0 0.0 0.9 0.00 0.00 0.00 85 1014.9
20260505005022 56 112 0.0 0.9 0.00 0.00 0.00 85 1015.1
20260505004540 56 120 0.0 2.6 0.00 0.00 0.00 86 1015.0
20260505004025 56 128 0.0 2.6 0.00 0.00 0.00 86 1015.2
20260505003525 56 125 0.0 2.6 0.00 0.00 0.00 86 1015.2
20260505003038 56 108 0.0 2.6 0.00 0.00 0.00 86 1015.2
20260505002525 56 131 0.0 3.5 0.00 0.00 0.00 86 1015.2
20260505002022 57 0 0.0 3.5 0.00 0.00 0.00 86 1015.2
20260505001539 57 0 0.0 3.5 0.00 0.00 0.00 86 1015.2
20260505001025 57 101 0.0 3.5 0.00 0.00 0.00 85 1015.1
20260505000527 57 0 0.9 1.7 0.00 0.00 0.00 84 1014.9
20260505000038 57 129 0.0 4.3 0.00 0.00 0.00 85 1015.0
20260504235525 57 0 0.0 4.3 0.00 0.00 0.00 85 1015.0
20260504235025 57 0 0.0 2.6 0.00 0.00 0.00 84 1015.0
20260504234543 57 124 0.0 2.6 0.00 0.00 0.00 84 1015.0
20260504234022 58 0 0.0 2.6 0.00 0.00 0.00 84 1015.0
20260504233522 58 0 0.0 2.6 0.00 0.00 0.00 84 1015.0
20260504233042 58 0 0.0 2.6 0.00 0.00 0.00 83 1014.8
20260504232523 58 0 0.0 2.6 0.00 0.00 0.00 82 1014.9
20260504232025 58 146 0.0 1.7 0.00 0.00 0.00 82 1014.8
20260504231539 58 143 0.0 2.6 0.00 0.00 0.00 80 1014.6
20260504231027 59 0 0.0 3.5 0.00 0.00 0.00 79 1014.7
20260504230525 59 143 0.0 3.5 0.00 0.00 0.00 78 1014.7
20260504230038 59 132 0.0 3.5 0.00 0.00 0.00 77 1014.8
20260504225526 60 117 0.0 2.6 0.00 0.00 0.00 77 1014.8
20260504225026 60 127 0.9 2.6 0.00 0.00 0.00 76 1014.7
20260504224537 60 106 0.0 1.7 0.00 0.00 0.00 76 1014.9
20260504224025 60 145 0.0 1.7 0.00 0.00 0.00 76 1014.9
20260504223526 61 125 0.0 1.7 0.00 0.00 0.00 75 1014.9
20260504223038 61 0 0.0 3.5 0.00 0.00 0.00 75 1015.0
20260504222524 61 133 0.0 3.5 0.00 0.00 0.00 75 1015.0
20260504222024 61 0 0.0 3.5 0.00 0.00 0.00 73 1015.1
20260504221543 62 131 0.0 2.6 0.00 0.00 0.00 74 1015.0
20260504221025 62 0 0.0 3.5 0.00 0.00 0.00 74 1015.1
20260504220525 62 129 0.9 3.5 0.00 0.00 0.00 73 1015.0
20260504220051 62 138 0.9 4.3 0.00 0.00 0.00 73 1015.0
20260504215525 62 138 0.9 4.3 0.00 0.00 0.00 74 1015.1
20260504215027 62 142 0.0 3.5 0.00 0.00 0.00 75 1015.2
20260504214548 62 124 0.9 3.5 0.00 0.00 0.00 74 1015.1
20260504214027 62 110 0.0 2.6 0.00 0.00 0.00 73 1015.0
20260504213525 62 0 0.0 2.6 0.00 0.00 0.00 76 1015.1
20260504213047 62 0 0.0 3.5 0.00 0.00 0.00 78 1015.1
20260504212526 61 104 0.0 3.5 0.00 0.00 0.00 78 1015.1
20260504212025 61 0 0.0 3.5 0.00 0.00 0.00 78 1015.1
20260504211538 61 143 0.0 3.5 0.00 0.00 0.00 78 1015.1
20260504211025 60 132 0.9 3.5 0.00 0.00 0.00 78 1015.0
20260504210525 60 122 0.0 1.7 0.00 0.00 0.00 77 1015.2
20260504210038 60 111 0.0 5.2 0.00 0.00 0.00 78 1015.2
20260504205525 60 0 0.0 5.2 0.00 0.00 0.00 79 1015.4
20260504205024 60 143 1.7 5.2 0.00 0.00 0.00 78 1015.4
20260504204539 60 129 0.9 5.2 0.00 0.00 0.00 79 1015.4
20260504204025 60 130 1.7 5.2 0.00 0.00 0.00 79 1015.3
20260504203522 60 130 0.9 3.5 0.00 0.00 0.00 79 1015.4
20260504203041 60 139 0.0 4.3 0.00 0.00 0.00 79 1015.3
20260504202527 60 0 0.9 4.3 0.00 0.00 0.00 80 1015.2
20260504202025 60 115 0.9 6.1 0.00 0.00 0.00 80 1015.3
20260504201539 60 156 0.0 6.1 0.00 0.00 0.00 80 1015.3
20260504201025 59 139 0.9 4.3 0.00 0.00 0.00 79 1015.3
20260504200525 60 143 0.9 4.3 0.00 0.00 0.00 79 1015.3
20260504200043 60 0 1.7 5.2 0.00 0.00 0.00 78 1015.4
20260504195525 60 110 0.9 5.2 0.00 0.00 0.00 79 1015.4
20260504195026 60 143 0.9 6.1 0.00 0.00 0.00 78 1015.5
20260504194541 60 116 1.7 6.1 0.00 0.00 0.00 78 1015.5
20260504194027 60 149 0.9 8.7 0.00 0.00 0.00 78 1015.3
20260504193526 60 137 0.9 8.7 0.00 0.00 0.00 79 1015.4
20260504193037 60 93 1.7 5.2 0.00 0.00 0.00 78 1015.4
20260504192527 61 155 0.9 5.2 0.00 0.00 0.00 78 1015.2
20260504192026 61 129 0.9 4.3 0.00 0.00 0.00 76 1015.3
20260504191552 62 141 0.9 4.3 0.00 0.00 0.00 76 1015.3
20260504191027 62 120 0.9 6.1 0.00 0.00 0.00 77 1015.4
20260504190526 62 148 0.9 6.1 0.00 0.00 0.00 75 1015.3
20260504190049 61 127 0.9 6.1 0.00 0.00 0.00 75 1015.4
20260504185525 61 0 0.0 6.1 0.00 0.00 0.00 75 1015.3
20260504185025 61 145 0.9 4.3 0.00 0.00 0.00 75 1015.3
20260504184552 60 139 0.0 4.3 0.00 0.00 0.00 76 1015.4
20260504184026 60 151 0.9 4.3 0.00 0.00 0.00 75 1015.4
20260504183527 60 145 0.9 5.2 0.00 0.00 0.00 75 1015.4
20260504183047 60 102 0.9 5.2 0.00 0.00 0.00 76 1015.4
20260504182526 59 104 0.0 3.5 0.00 0.00 0.00 79 1015.4
20260504182026 59 134 0.0 3.5 0.00 0.00 0.00 77 1015.4
20260504181546 60 140 0.0 2.6 0.00 0.00 0.00 78 1015.3
20260504181027 60 155 0.0 2.6 0.00 0.00 0.00 78 1015.3
20260504180525 60 117 0.0 1.7 0.00 0.00 0.00 78 1015.4
20260504180038 60 0 0.0 3.5 0.00 0.00 0.00 78 1015.3
20260504175525 60 0 0.0 3.5 0.00 0.00 0.00 78 1015.2
20260504175028 60 136 0.0 3.5 0.00 0.00 0.00 79 1015.1
20260504174541 59 0 0.9 2.6 0.00 0.00 0.00 78 1015.1
20260504174026 59 126 0.9 2.6 0.00 0.00 0.00 79 1015.0
20260504173526 59 143 0.0 2.6 0.00 0.00 0.00 79 1015.1
20260504173040 59 0 0.0 3.5 0.00 0.00 0.00 80 1015.1
20260504172525 59 127 0.0 3.5 0.00 0.00 0.00 80 1015.2
20260504172024 59 0 0.0 2.6 0.00 0.00 0.00 79 1015.1
20260504171539 58 126 0.0 2.6 0.00 0.00 0.00 78 1014.9
20260504171026 58 0 0.0 2.6 0.00 0.00 0.00 78 1014.9
20260504170523 58 123 0.9 2.6 0.00 0.00 0.00 78 1014.7
20260504151025 51 0 0.0 0.0 0.00 0.00 0.00 96 1014.8
20260504150525 51 0 0.0 0.0 0.00 0.00 0.00 96 1014.7
20260504141025 49 0 0.0 0.0 0.00 0.00 0.00 96 1014.6
20260504140525 49 0 0.0 0.0 0.00 0.00 0.00 96 1014.6
20260504130526 49 0 0.0 0.0 0.00 0.00 0.00 95 1014.3